Regional Weather Roundup
Issued by NWS

Home | Current Version | Previous Version | Text Only | Print | Product List | Glossary Off
Versions: 1 2 3 4 5 6 7 8 9 10 11 12 13 14 15 16 17 18 19 20 21 22 23 24 25 26 27 28 29 30 31 32 33 34 35 36 37 38 39 40 41 42 43 44 45 46 47 48 49 50

000
ASUS43 KMPX 220901
RWRMN
WEATHER ROUNDUP FOR MINNESOTA
NATIONAL WEATHER SERVICE TWIN CITIES/CHANHASSEN MN
400 AM CDT SUN APR 22 2018


NOTE: "FAIR" INDICATES FEW OR NO CLOUDS BELOW 12,000 FEET WITH NO
SIGNIFICANT WEATHER AND/OR OBSTRUCTIONS TO VISIBILITY. N/A MEANS
CURRENT SKY AND/OR WEATHER CONDITIONS ARE NOT AVAILABLE.

MNZ060>063-068>070-221000-
   Twin Cities Metro

CITY           SKY/WX    TMP DP  RH WIND       PRES   REMARKS
BLAINE         FAIR      34  27  75 CALM      30.32F
LAKEVILLE      FAIR      32  32 100 CALM      30.32F
SOUTH ST PAUL  FAIR      36  31  83 CALM      30.33S
LAKE ELMO      FAIR      32  30  93 CALM      30.34S
$$
MNZ001>005-007-008-013>017-022>024-027-028-221000-
   Northwest Minnesota

CITY           SKY/WX    TMP DP  RH WIND       PRES   REMARKS
BEMIDJI        FAIR      39  30  71 CALM      30.28S
HALLOCK        FAIR      43  39  87 S13       30.20S
ROSEAU         FAIR      45  37  76 S12       30.22F
WARROAD        FAIR      43  37  81 S6        30.23S
CROOKSTON      FAIR      41  37  87 S10       30.26S
FOSSTON        FAIR      34  30  86 S9        30.28S WCI  26
DETROIT LAKES  FAIR      37  34  87 SE6       30.30S
MOORHEAD       FAIR      36  34  93 SE8       30.29S
MAHNOMEN       FAIR      35  32  89 S7        30.28S WCI  29
$$
MNZ006-009>011-018-025>026-221000-
   North Central Minnesota

CITY           SKY/WX    TMP DP  RH WIND       PRES   REMARKS
FLAG ISLAND    FAIR      34  30  86 S8        30.22S WCI  27
WASKISH        FAIR      41  28  60 S3        30.28R
COOK           FAIR      28  23  80 CALM      30.30S
WALKER         FAIR      40  30  69 S3        30.29S
$$
MNZ012-019>021-037-221000-
   Northeast Minnesota

CITY           SKY/WX    TMP DP  RH WIND       PRES   REMARKS
ELY            FAIR      27  19  74 CALM      30.31S
EVELETH        FAIR      26  22  85 CALM      30.32S
DULUTH HARBOR  FAIR      32  28  86 N3        30.35R
TWO HARBORS    FAIR      28  21  74 CALM      30.30F
SILVER BAY     FAIR      27  21  80 CALM      30.31S
G MARAIS ARPRT FAIR      27  18  69 CALM      30.33S
$$
MNZ029>031-032-039>041-046>048-054>057-064-221000-
   West Central Minnesota

CITY           SKY/WX    TMP DP  RH WIND       PRES   REMARKS
FERGUS FALLS   FAIR      37  32  81 SE6       30.29S
MORRIS         CLEAR     36  34  93 SE6       30.29S
ELBOW LAKE     FAIR      36  32  84 E6        30.31R
WADENA         FAIR      36  30  80 CALM      30.30S
GLENWOOD       FAIR      36  34  93 CALM      30.31S
BENSON         CLEAR     30  28  93 E3        30.32S FOG
ORTONVILLE     CLEAR     34  30  86 SE3       30.29S
MADISON        CLEAR     37  34  87 CALM      30.29F
WILLMAR        FAIR      32  30  93 CALM      30.33F
$$
MNZ033>034-036-042>043-049>051-058-059-221000-
   Central Minnesota

CITY           SKY/WX    TMP DP  RH WIND       PRES   REMARKS
SAUK CENTRE    FAIR      32  30  93 CALM      30.31S
PAYNESVILLE    FAIR      30  30 100 CALM      30.31F
AITKIN         FAIR      25  21  86 CALM      30.30S
PINE RIVER     FAIR      28  25  86 CALM      30.34R
STAPLES        FAIR      34  28  80 CALM      30.31R
LONG PRAIRIE   FAIR      32  30  93 CALM      30.31S FOG
LITTLE FALLS   FAIR      32  27  80 CALM      30.32R
LITCHFIELD     FAIR      36  32  87 CALM      30.32S
BUFFALO        FAIR      32  28  85 CALM      30.33F
MAPLE LAKE     FAIR      31  29  94 CALM      30.32F
HUTCHINSON     FAIR      33  32  96 CALM      30.32F
$$
MNZ037-044-045-052-053-221000-
   East Central Minnesota

CITY           SKY/WX    TMP DP  RH WIND       PRES   REMARKS
PRINCETON      FAIR      28  27  93 CALM      30.33S
MORA           FAIR      27  23  86 CALM      30.34S
CAMBRIDGE      FAIR      32  21  64 CALM      30.33S
RUSH CITY      FAIR      29  24  83 CALM      30.33S
MOOSE LAKE     FAIR      27  21  80 CALM      30.31S
HINCKLEY       FAIR      28  23  80 CALM      30.33S
CLOQUET        FAIR      28  18  64 CALM      30.32S
MCGREGOR       FAIR      28  23  80 CALM      30.32S
$$
MNZ071>073-080-081-089-090-097-098-221000-
   Southwest Minnesota

CITY           SKY/WX    TMP DP  RH WIND       PRES   REMARKS
MONTEVIDEO     CLEAR     34  32  93 S3        30.30S
GRANITE FALLS  CLEAR     37  34  88 E5        30.31F
CANBY          CLEAR     32  30  94 CALM      30.30S
OLIVIA         CLEAR     34  32  93 CALM      30.30F
PIPESTONE      CLOUDY   N/A N/A N/A SE6       30.27F
WINDOM         CLOUDY    37  21  52 SE3       30.29F
JACKSON        CLOUDY    36  32  87 CALM      30.30S
TRACY          CLEAR     34  31  88 S3        30.29S
SLAYTON        CLOUDY    35  31  87 CALM      30.28F
$$
MNZ065>067-074>077-082>085-091>093-221000-
   South Central Minnesota

CITY           SKY/WX    TMP DP  RH WIND       PRES   REMARKS
NEW ULM        CLEAR     37  32  81 CALM      30.31F
ST JAMES       CLOUDY    30  30 100 CALM      30.32S
GLENCOE        FAIR      33  33 100 CALM      30.31F
WASECA         CLOUDY    36  32  87 CALM      30.33S
ALBERT LEA     FAIR      37  30  75 CALM      30.31S
$$
MNZ078>079-086>088-094>096-221000-
   Southeast Minnesota

CITY           SKY/WX    TMP DP  RH WIND       PRES   REMARKS
RED WING       FAIR      32  27  80 CALM      30.33S
STANTON        FAIR      33  31  93 CALM      30.32S
DODGE CENTER   FAIR      36  30  80 E3        30.32S
WINONA         FAIR      34  32  93 CALM      30.33R
AUSTIN         FAIR      36  30  80 CALM      30.31S
PRESTON        CLOUDY    39  32  75 CALM      30.32F
$$
ABBREVIATIONS USED IN REMARKS
   TC - TEMPERATURES IN CELSIUS
  WCI - WIND CHILL INDEX
   HX - HEAT INDEX
  VSB - VISIBILITY
$$




USA.gov is the U.S. government's official web portal to all federal, state and local government web resources and services.